Fairbanks, AK

4:12 AM AKDT on July 28, 2017 (GMT -0800)
Fairbanks International

Weather History for PAFA - December, 2012

Change the Weather History Date:

Wednesday, December 19, 2012

  Actual Average Record
Temperature  
Mean Temperature -29 °F -4 °F  
Max Temperature -19 °F 5 °F 40 °F (1985)
Min Temperature -40 °F -13 °F -52 °F (1933)
Degree Days  
Heating Degree Days 94 69  
Month to date heating degree days 1598 1295  
Since 1 July heating degree days 6087 5426  
Cooling Degree Days 0 0  
Month to date cooling degree days 0 0  
Year to date cooling degree days 34 61  
Moisture  
Dew Point -27 °F    
Average Humidity 72    
Maximum Humidity 78    
Minimum Humidity 55    
Precipitation  
Precipitation 0.01 in 0.02 in 0.56 in (1968)
Month to date precipitation 1.19 0.37  
Year to date precipitation 10.62 10.54  
Snow  
Snow 0.30 in 0.30 in 7.20 in (1968)
Month to date snowfall 18.6 7.2  
Since 1 July snowfall 29.9 33.0  
Snow Depth 17.00 in    
Sea Level Pressure  
Sea Level Pressure 30.33 in    
Wind  
Wind Speed 0 mph (North)    
Max Wind Speed 5 mph    
Max Gust Speed -    
Visibility 6 miles    
Events Snow    
T = Trace of Precipitation, MM = Missing Value Source: NWS Daily Summary

Daily Weather History Graph

Daily Weather History Graph

Search for Another Location

Airport or City:

Trip Planner

Search our weather history database for the weather conditions in past years. The results will help you decide how hot, cold, wet, or windy it might be!

Date:

Astronomy

Dec. 19, 2012 Rise Set
Actual Time 10:57 AM AKST 2:40 PM AKST
Civil Twilight 9:32 AM AKST 4:05 PM AKST
Nautical Twilight 8:20 AM AKST 5:17 PM AKST
Astronomical Twilight 7:18 AM AKST 6:19 PM AKST
Moon 12:12 PM AKST (12/19) 12:01 AM AKST (12/19)
Length of Visible Light 6h 33m
Length of Day
3h 43m
Waxing Crescent, 46% of the Moon is Illuminated
Dec 19
Waxing Crescent
Dec 19
First Quarter
Dec 28
Full
Jan 4
Last Quarter
Jan 11
New

Hourly Weather History & Observations

Time (AKST) Temp. Windchill Dew Point Humidity Pressure Visibility Wind Dir Wind Speed Gust Speed Precip Events Conditions
12:53 AM -24.0 °F - -29.9 °F 74% 29.99 in 10.0 mi Calm Calm - N/A   Mostly Cloudy
1:53 AM -20.9 °F - -27.9 °F 70% 30.03 in 10.0 mi Calm Calm - N/A   Mostly Cloudy
3:53 AM -18.9 °F -32.0 °F -25.1 °F 74% 30.09 in 7.0 mi NNE 4.6 mph - N/A Snow Light Snow
4:53 AM -20.0 °F -30.7 °F -27.0 °F 70% 30.12 in 6.0 mi North 3.5 mph - N/A Snow Light Snow
5:53 AM -18.9 °F - -25.1 °F 74% 30.15 in 8.0 mi Calm Calm - N/A Snow Light Snow
6:53 AM -20.0 °F - -26.0 °F 74% 30.18 in 9.0 mi Calm Calm - N/A Snow Light Snow
7:53 AM -20.0 °F - -25.1 °F 78% 30.21 in 4.0 mi Calm Calm - N/A Snow Light Snow
8:53 AM -20.0 °F - -25.1 °F 78% 30.25 in 3.0 mi Calm Calm - N/A Snow Light Snow
9:53 AM -20.9 °F - -27.0 °F 73% 30.28 in 5.0 mi Calm Calm - N/A Snow Light Snow
10:53 AM -20.9 °F - -27.0 °F 73% 30.31 in 6.0 mi Calm Calm - N/A Snow Light Snow
11:53 AM -20.0 °F - -26.0 °F 74% 30.33 in 5.0 mi Calm Calm - N/A Snow Light Snow
12:53 PM -20.0 °F - -26.0 °F 74% 30.35 in 6.0 mi Calm Calm - N/A Snow Light Snow
1:53 PM -20.9 °F - -27.0 °F 73% 30.38 in 3.0 mi Calm Calm - N/A Snow Light Snow
2:53 PM -18.9 °F - -25.1 °F 74% 30.40 in 5.0 mi Calm Calm - N/A Snow Light Snow
3:53 PM -20.9 °F - -26.0 °F 77% 30.41 in 5.0 mi Calm Calm - N/A Snow Light Snow
4:53 PM -20.0 °F - -26.0 °F 74% 30.44 in 4.0 mi Calm Calm - N/A Snow Light Snow
5:53 PM -26.0 °F - -31.0 °F 77% 30.46 in 4.0 mi Calm Calm - N/A Snow Light Snow
6:53 PM -27.9 °F - -33.0 °F 77% 30.48 in 5.0 mi Calm Calm - N/A   Mostly Cloudy
7:53 PM -29.9 °F - - N/A% 30.50 in 7.0 mi Calm Calm - N/A   Scattered Clouds
8:53 PM -33.0 °F - - N/A% 30.53 in 7.0 mi Calm Calm - N/A   Scattered Clouds
9:53 PM -36.0 °F - - N/A% 30.55 in 7.0 mi Calm Calm - N/A   Scattered Clouds
10:53 PM -36.0 °F - - N/A% 30.56 in 5.0 mi Calm Calm - N/A   Scattered Clouds
11:53 PM -38.9 °F - - N/A% 30.59 in 6.0 mi Calm Calm - N/A   Scattered Clouds